This demonstration page uses our WeatherBlox Daily Observations layout. Learn more.

Left ArrowRight Arrow

Hourly Observations for November 9, 2016

Temp ( °F °C ) Dew Point ( °F °C ) Humidity (%) Winds ( mph kmh ) Pressure ( in mb ) Visibility ( mi km ) Precip ( " mm )
12:51 am 00:51 Clear 58 14.4 39 3.9 50 50 E 14 22 30.2 1023 10 16.0934 N/A
1:51 am 01:51 Clear 57 13.9 36 2.2 45 45 E 13 20 30.21 1023 10 16.0934 N/A
2:51 am 02:51 Clear 54 12.2 36 2.2 51 51 S 3 6 30.22 1024 10 16.0934 N/A
3:51 am 03:51 Clear 57 13.9 34 1.1 42 42 E 14 22 30.22 1023 10 16.0934 N/A
4:51 am 04:51 Clear 55 12.8 36 2.2 49 49 E 12 19 30.22 1023 10 16.0934 N/A
5:51 am 05:51 Clear 56 13.3 34 1.1 44 44 E 14 22 30.22 1023 10 16.0934 N/A
6:51 am 06:51 Sunny 56 13.3 35 1.7 46 46 E 16 26 30.24 1024 10 16.0934 N/A
7:51 am 07:51 Sunny 58 14.4 35 1.7 42 42 E 16 26 30.25 1025 10 16.0934 N/A
8:51 am 08:51 Sunny 61 16.1 35 1.7 38 38 E 13 20 30.25 1024 10 16.0934 N/A
9:51 am 09:51 Sunny 65 18.3 35 1.7 33 33 ESE 12 19 30.24 1024 10 16.0934 N/A
10:51 am 10:51 Sunny 66 18.9 33 0.6 29 29 SE 12 19 30.22 1023 10 16.0934 N/A
11:51 am 11:51 Sunny 68 20 33 0.6 27 27 SE 13 20 30.19 1022 10 16.0934 N/A
12:51 pm 12:51 Sunny 69 20.6 33 0.6 26 26 S 12 19 30.14 1021 10 16.0934 N/A
1:51 pm 13:51 Sunny 70 21.1 32 undefined 25 25 SSE 12 19 30.12 1020 10 16.0934 N/A
2:51 pm 14:51 Sunny 71 21.7 31 -0.6 23 23 SE 9 15 30.09 1019 10 16.0934 N/A
3:51 pm 15:51 Sunny 71 21.7 30 -1.1 22 22 SE 10 17 30.07 1018 10 16.0934 N/A
4:51 pm 16:51 Sunny 69 20.6 29 -1.7 22 22 S 12 19 30.08 1019 10 16.0934 N/A
5:51 pm 17:51 Clear 64 17.8 30 -1.1 28 28 SE 7 11 30.09 1019 10 16.0934 N/A
6:51 pm 18:51 Clear 63 17.2 29 -1.7 28 28 SE 9 15 30.11 1020 10 16.0934 N/A
7:51 pm 19:51 Clear 59 15 31 -0.6 35 35 E 10 17 30.13 1020 10 16.0934 N/A
8:51 pm 20:51 Clear 56 13.3 32 undefined 40 40 SE 8 13 30.14 1021 10 16.0934 N/A
9:51 pm 21:51 Clear 58 14.4 28 -2.2 32 32 SE 10 17 30.15 1021 10 16.0934 N/A
10:51 pm 22:51 Clear 57 13.9 26 -3.3 30 30 E 10 17 30.16 1022 10 16.0934 N/A
11:51 pm 23:51 Clear 55 12.8 30 -1.1 38 38 E 7 11 30.17 1022 10 16.0934 N/A

Powered by AerisWeather